Georgetown, SC

7:43 PM EDT on July 24, 2017 (GMT -0400)
Georgetown County

Weather History for KGGE - April, 2011

Change the Weather History Date:

Thursday, April 28, 2011

  Actual Average Record
Temperature  
Mean Temperature 78 °F -  
Max Temperature 82 °F 79 °F 84 °F (2012)
Min Temperature 73 °F 53 °F 48 °F (2015)
Cooling Degree Days 12    
Growing Degree Days 28 (Base 50)    
Moisture  
Dew Point 72 °F    
Average Humidity 78    
Maximum Humidity 100    
Minimum Humidity 65    
Precipitation  
Precipitation 0.00 in - - ()
Sea Level Pressure  
Sea Level Pressure 29.92 in    
Wind  
Wind Speed 15 mph (SSW)    
Max Wind Speed 28 mph    
Max Gust Speed 36 mph    
Visibility 10 miles    
Events Thunderstorm    
Averages and records for this station are not official NWS values.
T = Trace of Precipitation, MM = Missing Value Source: NWS Daily Summary

Daily Weather History Graph

Daily Weather History Graph

Search for Another Location

Airport or City:

Trip Planner

Search our weather history database for the weather conditions in past years. The results will help you decide how hot, cold, wet, or windy it might be!

Date:

Astronomy

Apr. 28, 2011 Rise Set
Actual Time 6:32 AM EDT 7:57 PM EDT
Civil Twilight 6:06 AM EDT 8:23 PM EDT
Nautical Twilight 5:35 AM EDT 8:55 PM EDT
Astronomical Twilight 5:02 AM EDT 9:27 PM EDT
Moon 3:49 AM EDT (4/28) 4:04 PM EDT (4/28)
Length of Visible Light 14h 17m
Length of Day
13h 24m
Waning Crescent, 18% of the Moon is Illuminated
Apr 28
Waning Crescent
May 3
New
May 10
First Quarter
May 17
Full
May 24
Last Quarter

Hourly Weather History & Observations

Time (EDT) Temp. Heat Index Dew Point Humidity Pressure Visibility Wind Dir Wind Speed Gust Speed Precip Events Conditions
12:15 AM 73.4 °F - - N/A% 29.97 in 10.0 mi South 15.0 mph 18.4 mph N/A   Overcast
12:55 AM 73.4 °F - - N/A% 29.97 in 10.0 mi South 12.7 mph - N/A   Overcast
1:15 AM 73.4 °F - - N/A% 29.96 in 10.0 mi South 12.7 mph 19.6 mph N/A   Overcast
1:35 AM 73.4 °F - - N/A% 29.94 in 10.0 mi South 12.7 mph 25.3 mph N/A   Overcast
1:55 AM 73.4 °F - - N/A% 29.94 in 10.0 mi South 17.3 mph 24.2 mph N/A   Overcast
2:15 AM 73.4 °F - - N/A% 29.94 in 10.0 mi SSW 10.4 mph 21.9 mph N/A   Overcast
2:35 AM 73.4 °F - - N/A% 29.94 in 10.0 mi SSW 15.0 mph 27.6 mph N/A   Overcast
2:55 AM 73.4 °F - - N/A% 29.94 in 10.0 mi SSW 13.8 mph 26.5 mph N/A   Overcast
3:15 AM 73.4 °F - - N/A% 29.94 in 10.0 mi SSW 11.5 mph 24.2 mph N/A   Overcast
3:55 AM 73.4 °F - - N/A% 29.94 in 10.0 mi SSW 16.1 mph 25.3 mph N/A   Overcast
4:15 AM 73.4 °F - - N/A% 29.94 in 10.0 mi SSW 15.0 mph 24.2 mph N/A   Overcast
4:35 AM 73.4 °F - - N/A% 29.93 in 10.0 mi SSW 15.0 mph 28.8 mph N/A   Overcast
4:55 AM 73.4 °F - - N/A% 29.92 in 10.0 mi SSW 17.3 mph 23.0 mph N/A   Overcast
5:15 AM 73.4 °F - - N/A% 29.93 in 10.0 mi SSW 18.4 mph 27.6 mph N/A   Overcast
5:35 AM 73.4 °F - - N/A% 29.91 in 10.0 mi South 15.0 mph 28.8 mph N/A   Overcast
5:55 AM 73.4 °F - - N/A% 29.92 in 10.0 mi SSW 17.3 mph 24.2 mph N/A   Overcast
6:15 AM 73.4 °F - - N/A% 29.94 in 10.0 mi SSW 16.1 mph 21.9 mph N/A   Overcast
6:35 AM 73.4 °F - - N/A% 29.94 in 10.0 mi SSW 12.7 mph 17.3 mph N/A   Overcast
6:55 AM 73.4 °F - - N/A% 29.94 in 10.0 mi South 15.0 mph 25.3 mph N/A   Overcast
7:15 AM 73.4 °F - - N/A% 29.96 in 10.0 mi SSW 12.7 mph 21.9 mph N/A   Overcast
7:35 AM 73.4 °F - - N/A% 29.96 in 10.0 mi SSW 10.4 mph - N/A   Overcast
7:55 AM 73.4 °F - - N/A% 29.96 in 10.0 mi SSW 11.5 mph 25.3 mph N/A   Overcast
8:15 AM 73.4 °F - - N/A% 29.97 in 10.0 mi SSW 15.0 mph 19.6 mph N/A   Overcast
8:35 AM 75.2 °F - - N/A% 29.97 in 10.0 mi SSW 15.0 mph 19.6 mph N/A   Overcast
8:55 AM 77.0 °F - - N/A% 29.99 in 10.0 mi SSW 10.4 mph 19.6 mph N/A   Overcast
9:15 AM 77.0 °F - 77.0 °F 100% 29.97 in 10.0 mi SSW 10.4 mph 19.6 mph N/A   Overcast
9:35 AM 78.8 °F - 77.0 °F 94% 29.98 in 10.0 mi SW 17.3 mph 24.2 mph N/A   Overcast
9:55 AM 78.8 °F - 77.0 °F 94% 29.99 in 10.0 mi SSW 12.7 mph 27.6 mph N/A   Overcast
10:15 AM 78.8 °F - 77.0 °F 94% 29.98 in 10.0 mi South 10.4 mph 16.1 mph N/A   Overcast
10:35 AM 78.8 °F - 71.6 °F 78% 29.98 in 10.0 mi SSW 16.1 mph 26.5 mph N/A   Mostly Cloudy
10:55 AM 80.6 °F 84.6 °F 71.6 °F 74% 29.96 in 10.0 mi South 13.8 mph 23.0 mph N/A   Scattered Clouds
11:15 AM 82.4 °F 87.2 °F 71.6 °F 70% 29.96 in 10.0 mi South 16.1 mph 25.3 mph N/A   Scattered Clouds
11:35 AM 80.6 °F 84.6 °F 71.6 °F 74% 29.94 in 10.0 mi SSW 24.2 mph 31.1 mph N/A   Mostly Cloudy
11:55 AM 80.6 °F 84.6 °F 71.6 °F 74% 29.92 in 10.0 mi SSW 23.0 mph 32.2 mph N/A   Mostly Cloudy
12:15 PM 80.6 °F 84.6 °F 71.6 °F 74% 29.92 in 10.0 mi SSW 21.9 mph 33.4 mph N/A   Mostly Cloudy
12:35 PM 82.4 °F 87.2 °F 71.6 °F 70% 29.91 in 10.0 mi SSW 17.3 mph 25.3 mph N/A   Mostly Cloudy
12:55 PM 80.6 °F 84.6 °F 71.6 °F 74% 29.91 in 10.0 mi SSW 27.6 mph 35.7 mph N/A   Mostly Cloudy
1:15 PM 80.6 °F 84.6 °F 71.6 °F 74% 29.89 in 10.0 mi SW 24.2 mph 32.2 mph N/A   Mostly Cloudy
1:35 PM 80.6 °F 84.6 °F 71.6 °F 74% 29.91 in 10.0 mi SSW 20.7 mph 33.4 mph N/A   Overcast
1:55 PM 80.6 °F 84.6 °F 71.6 °F 74% 29.89 in 10.0 mi SSW 17.3 mph 27.6 mph N/A   Overcast
2:15 PM 80.6 °F 84.6 °F 71.6 °F 74% 29.87 in 10.0 mi SSW 18.4 mph 26.5 mph N/A   Overcast
2:35 PM 82.4 °F 87.2 °F 71.6 °F 70% 29.88 in 10.0 mi SSW 19.6 mph 33.4 mph N/A Thunderstorm Mostly Cloudy
3:35 PM 80.6 °F 84.6 °F 71.6 °F 74% 29.87 in 10.0 mi SSW 18.4 mph 26.5 mph N/A   Overcast
3:55 PM 80.6 °F 84.6 °F 71.6 °F 74% 29.84 in 10.0 mi SSW 13.8 mph 25.3 mph N/A   Mostly Cloudy
4:15 PM 80.6 °F 84.6 °F 71.6 °F 74% 29.84 in 10.0 mi SSW 15.0 mph - N/A   Scattered Clouds
4:35 PM 78.8 °F - 71.6 °F 78% 29.84 in 10.0 mi SSW 15.0 mph 19.6 mph N/A   Mostly Cloudy
5:15 PM 77.0 °F - 71.6 °F 83% 29.84 in 10.0 mi South 11.5 mph 16.1 mph N/A   Mostly Cloudy
5:35 PM 77.0 °F - 71.6 °F 83% 29.87 in 10.0 mi SSW 15.0 mph 18.4 mph N/A   Mostly Cloudy
5:55 PM 77.0 °F - 71.6 °F 83% 29.88 in 10.0 mi SSW 12.7 mph 19.6 mph N/A   Overcast
6:15 PM 75.2 °F - 71.6 °F 89% 29.88 in 10.0 mi SW 10.4 mph - N/A   Overcast
6:35 PM 77.0 °F - 69.8 °F 78% 29.87 in 10.0 mi SW 8.1 mph - N/A   Scattered Clouds
6:55 PM 77.0 °F - 64.4 °F 65% 29.88 in 10.0 mi WSW 13.8 mph 18.4 mph N/A   Scattered Clouds
7:15 PM 77.0 °F - 64.4 °F 65% 29.88 in 10.0 mi SW 11.5 mph 16.1 mph N/A   Mostly Cloudy
7:35 PM 73.4 °F - 64.4 °F 73% 29.88 in 10.0 mi SW 11.5 mph - N/A   Scattered Clouds
7:55 PM 73.4 °F - 64.4 °F 73% 29.89 in 10.0 mi SW 11.5 mph 16.1 mph N/A   Mostly Cloudy
8:15 PM 73.4 °F - 64.4 °F 73% 29.88 in 10.0 mi SW 12.7 mph 17.3 mph N/A   Mostly Cloudy
8:35 PM 71.6 °F - 64.4 °F 78% 29.88 in 10.0 mi WSW 16.1 mph 21.9 mph N/A   Mostly Cloudy
8:55 PM 71.6 °F - 64.4 °F 78% 29.89 in 10.0 mi WSW 17.3 mph 21.9 mph N/A   Scattered Clouds
9:15 PM 71.6 °F - 64.4 °F 78% 29.89 in 10.0 mi WSW 10.4 mph 19.6 mph N/A   Mostly Cloudy
9:35 PM 71.6 °F - 64.4 °F 78% 29.90 in 10.0 mi WSW 13.8 mph 19.6 mph N/A   Overcast
9:55 PM 71.6 °F - 64.4 °F 78% 29.91 in 10.0 mi WSW 13.8 mph 17.3 mph N/A   Overcast
10:15 PM 71.6 °F - 64.4 °F 78% 29.92 in 10.0 mi WSW 11.5 mph - N/A   Mostly Cloudy
10:35 PM 69.8 °F - 66.2 °F 88% 29.92 in 10.0 mi SW 9.2 mph - N/A   Mostly Cloudy
10:55 PM 69.8 °F - 66.2 °F 88% 29.91 in 10.0 mi SW 8.1 mph - N/A   Overcast
11:15 PM 69.8 °F - 64.4 °F 83% 29.91 in 10.0 mi SW 6.9 mph - N/A   Overcast
11:55 PM 69.8 °F - 66.2 °F 88% 29.89 in 10.0 mi West 8.1 mph - N/A   Overcast